Precipitable_Water
0.28 0.19 0.17 0.16 0.18 0.19 0.19 0.19 0.18 0.18 0.18 0.17 0.16 0.14 0.13 0.13 0.14 0.16 0.18 0.20 0.22 0.19 0.18 0.19 0.19 0.18 0.17 0.17 0.19 0.21 0.27 0.30 0.28 0.31 0.35 0.42 0.46 0.51 0.56 0.59 0.64 0.67 0.73 0.87 0.92 0.97 0.98 1.00 1.02 1.02 1.01 1.04 1.07 1.12 1.16 1.15 1.13 1.10 1.06 1.06 1.05 1.15 1.21 1.17 1.14 1.13 1.12 1.10 1.12 1.17 1.15 1.14 1.23 1.28 1.35 1.39 1.47 1.52 1.53 1.57 1.61 1.65 1.65 1.62 1.60 1.59
0.26 0.19 0.17 0.18 0.18 0.19 0.20 0.20 0.19 0.18 0.17 0.16 0.15 0.14 0.13 0.14 0.13 0.17 0.19 0.21 0.24 0.19 0.18 0.20 0.19 0.19 0.19 0.20 0.21 0.25 0.25 0.26 0.32 0.37 0.34 0.37 0.43 0.48 0.52 0.58 0.62 0.69 0.83 0.87 0.88 0.94 0.96 1.00 1.01 0.97 0.96 0.97 0.94 1.02 1.07 1.07 1.06 1.06 1.09 1.08 1.11 1.17 1.17 1.15 1.14 1.09 1.07 1.07 1.07 1.07 1.08 1.12 1.17 1.24 1.27 1.29 1.37 1.43 1.51 1.55 1.59 1.59 1.60 1.60 1.58 1.57
0.20 0.17 0.18 0.18 0.19 0.20 0.20 0.20 0.19 0.16 0.15 0.16 0.14 0.14 0.14 0.14 0.18 0.20 0.21 0.23 0.23 0.19 0.18 0.19 0.17 0.18 0.20 0.22 0.30 0.30 0.32 0.36 0.35 0.32 0.38 0.46 0.48 0.50 0.56 0.62 0.69 0.75 0.77 0.83 0.88 0.91 0.92 0.97 0.98 0.91 0.89 0.93 1.00 1.05 1.04 1.04 1.03 1.02 1.06 1.10 1.14 1.17 1.14 1.15 1.18 1.12 1.03 1.08 1.15 1.16 1.16 1.16 1.18 1.30 1.35 1.36 1.39 1.44 1.49 1.55 1.60 1.61 1.59 1.57 1.56 1.56
0.17 0.17 0.17 0.20 0.20 0.17 0.16 0.17 0.17 0.16 0.16 0.15 0.14 0.14 0.13 0.17 0.17 0.17 0.21 0.24 0.23 0.20 0.18 0.19 0.17 0.18 0.22 0.28 0.34 0.44 0.45 0.46 0.46 0.44 0.42 0.39 0.44 0.51 0.55 0.59 0.65 0.73 0.77 0.78 0.80 0.83 0.87 0.91 0.94 0.90 0.88 0.93 1.00 1.02 1.00 0.97 0.93 0.98 1.03 1.06 1.11 1.14 1.15 1.17 1.20 1.15 1.15 1.17 1.22 1.26 1.27 1.29 1.26 1.24 1.32 1.38 1.42 1.43 1.47 1.52 1.61 1.67 1.63 1.56 1.54 1.56
0.13 0.16 0.18 0.19 0.18 0.16 0.13 0.14 0.14 0.13 0.13 0.15 0.15 0.15 0.15 0.16 0.20 0.21 0.21 0.22 0.24 0.24 0.23 0.19 0.17 0.17 0.21 0.23 0.33 0.44 0.51 0.45 0.49 0.46 0.45 0.49 0.51 0.54 0.59 0.64 0.69 0.71 0.75 0.76 0.78 0.80 0.81 0.82 0.86 0.88 0.92 0.98 0.96 0.97 0.93 0.92 0.91 0.96 1.00 1.04 1.08 1.15 1.18 1.22 1.22 1.22 1.23 1.23 1.22 1.24 1.27 1.30 1.27 1.30 1.29 1.28 1.30 1.35 1.38 1.45 1.52 1.54 1.61 1.60 1.57 1.57
0.16 0.20 0.24 0.19 0.16 0.15 0.13 0.12 0.13 0.13 0.11 0.13 0.15 0.15 0.16 0.18 0.20 0.22 0.24 0.22 0.19 0.19 0.22 0.18 0.14 0.15 0.24 0.29 0.34 0.44 0.43 0.40 0.52 0.46 0.46 0.47 0.50 0.54 0.53 0.54 0.62 0.69 0.73 0.76 0.78 0.80 0.81 0.82 0.88 0.92 0.93 0.92 0.95 0.97 1.03 1.06 1.07 1.10 1.11 1.10 1.10 1.14 1.19 1.20 1.22 1.24 1.24 1.21 1.17 1.12 1.09 1.06 1.07 1.07 1.09 1.10 1.14 1.23 1.28 1.33 1.51 1.57 1.59 1.60 1.60 1.59
0.18 0.24 0.24 0.20 0.18 0.17 0.14 0.12 0.14 0.14 0.11 0.11 0.11 0.14 0.17 0.19 0.21 0.22 0.22 0.21 0.17 0.16 0.21 0.23 0.15 0.15 0.25 0.28 0.34 0.38 0.41 0.42 0.51 0.50 0.52 0.51 0.51 0.52 0.54 0.58 0.60 0.65 0.70 0.80 0.85 0.89 0.87 0.87 0.87 0.89 0.89 0.90 0.91 0.97 1.08 1.13 1.19 1.25 1.25 1.20 1.17 1.15 1.16 1.19 1.19 1.21 1.22 1.20 1.18 1.14 1.11 1.11 1.07 1.02 1.07 1.18 1.26 1.29 1.35 1.42 1.46 1.55 1.64 1.65 1.59 1.58
0.21 0.25 0.24 0.23 0.21 0.19 0.16 0.13 0.14 0.14 0.11 0.10 0.13 0.15 0.19 0.22 0.23 0.24 0.23 0.21 0.19 0.22 0.23 0.22 0.20 0.18 0.18 0.28 0.37 0.40 0.39 0.41 0.44 0.50 0.54 0.58 0.57 0.58 0.59 0.62 0.64 0.68 0.73 0.79 0.85 0.90 0.93 0.92 0.89 0.88 0.94 0.98 1.01 1.11 1.17 1.20 1.27 1.35 1.31 1.24 1.18 1.19 1.19 1.24 1.27 1.25 1.25 1.19 1.19 1.15 1.14 1.15 1.14 1.11 1.10 1.17 1.24 1.31 1.35 1.38 1.42 1.51 1.59 1.63 1.66 1.58
0.23 0.23 0.23 0.22 0.22 0.20 0.17 0.16 0.17 0.15 0.13 0.13 0.17 0.19 0.20 0.24 0.25 0.24 0.22 0.20 0.20 0.20 0.18 0.20 0.22 0.18 0.21 0.32 0.42 0.41 0.36 0.39 0.41 0.47 0.53 0.59 0.60 0.59 0.60 0.63 0.67 0.72 0.76 0.79 0.81 0.86 0.93 0.97 1.01 1.06 1.10 1.18 1.23 1.25 1.26 1.27 1.30 1.25 1.32 1.36 1.36 1.32 1.28 1.27 1.28 1.27 1.29 1.28 1.25 1.21 1.18 1.15 1.19 1.22 1.22 1.26 1.31 1.29 1.32 1.30 1.38 1.43 1.52 1.60 1.61 1.59
0.25 0.27 0.28 0.27 0.24 0.20 0.21 0.21 0.21 0.19 0.16 0.19 0.21 0.22 0.24 0.24 0.23 0.23 0.21 0.20 0.20 0.19 0.16 0.18 0.20 0.17 0.20 0.32 0.35 0.43 0.40 0.38 0.43 0.50 0.56 0.60 0.63 0.64 0.65 0.68 0.71 0.74 0.78 0.82 0.85 0.89 0.94 0.98 0.99 1.03 1.09 1.14 1.21 1.25 1.37 1.48 1.49 1.37 1.40 1.43 1.33 1.30 1.34 1.32 1.30 1.32 1.33 1.35 1.33 1.26 1.22 1.19 1.20 1.24 1.27 1.29 1.28 1.29 1.31 1.28 1.33 1.41 1.48 1.56 1.56 1.58
0.29 0.32 0.32 0.27 0.24 0.25 0.25 0.26 0.26 0.24 0.21 0.23 0.23 0.23 0.22 0.22 0.21 0.22 0.22 0.20 0.19 0.16 0.17 0.20 0.21 0.18 0.14 0.28 0.35 0.34 0.35 0.46 0.50 0.55 0.60 0.64 0.65 0.68 0.71 0.73 0.75 0.77 0.80 0.82 0.86 0.90 0.93 1.00 1.05 1.10 1.10 1.17 1.25 1.24 1.32 1.41 1.36 1.36 1.35 1.31 1.25 1.28 1.37 1.38 1.33 1.36 1.37 1.40 1.39 1.32 1.33 1.28 1.24 1.28 1.30 1.23 1.23 1.28 1.27 1.26 1.30 1.39 1.48 1.54 1.54 1.52
0.28 0.29 0.27 0.28 0.29 0.27 0.26 0.25 0.27 0.26 0.25 0.24 0.23 0.21 0.19 0.18 0.20 0.20 0.20 0.20 0.16 0.15 0.19 0.22 0.22 0.20 0.13 0.27 0.40 0.49 0.58 0.58 0.55 0.53 0.56 0.58 0.62 0.66 0.70 0.73 0.76 0.80 0.81 0.84 0.86 0.88 0.92 0.97 1.01 1.01 1.01 1.06 1.09 1.13 1.21 1.25 1.29 1.30 1.28 1.28 1.25 1.23 1.24 1.36 1.41 1.36 1.39 1.43 1.43 1.36 1.32 1.27 1.26 1.20 1.21 1.26 1.24 1.27 1.26 1.27 1.28 1.37 1.43 1.47 1.51 1.48
0.25 0.26 0.28 0.28 0.30 0.27 0.25 0.24 0.25 0.26 0.25 0.23 0.23 0.22 0.17 0.15 0.15 0.13 0.17 0.14 0.14 0.15 0.20 0.24 0.23 0.20 0.23 0.35 0.49 0.54 0.56 0.59 0.62 0.61 0.61 0.62 0.64 0.68 0.72 0.75 0.77 0.79 0.81 0.82 0.85 0.87 0.89 0.90 0.93 0.96 0.99 1.03 1.05 1.07 1.08 1.06 1.15 1.25 1.24 1.24 1.23 1.23 1.26 1.25 1.28 1.29 1.34 1.35 1.36 1.39 1.31 1.29 1.28 1.22 1.19 1.19 1.22 1.30 1.29 1.31 1.30 1.32 1.35 1.43 1.45 1.43
0.23 0.28 0.27 0.27 0.28 0.30 0.28 0.23 0.23 0.22 0.24 0.23 0.22 0.21 0.17 0.14 0.12 0.11 0.14 0.16 0.16 0.18 0.21 0.20 0.24 0.22 0.39 0.47 0.57 0.55 0.61 0.66 0.65 0.66 0.68 0.65 0.64 0.66 0.69 0.73 0.76 0.78 0.79 0.81 0.83 0.85 0.87 0.89 0.92 0.96 0.99 1.02 1.05 1.08 1.11 1.11 1.10 1.16 1.22 1.23 1.20 1.19 1.19 1.17 1.17 1.23 1.28 1.27 1.33 1.24 1.22 1.30 1.29 1.27 1.26 1.21 1.23 1.29 1.31 1.32 1.33 1.35 1.35 1.35 1.42 1.44
0.19 0.19 0.23 0.25 0.23 0.30 0.29 0.27 0.26 0.24 0.24 0.24 0.25 0.22 0.19 0.16 0.14 0.11 0.13 0.11 0.13 0.15 0.18 0.23 0.18 0.19 0.27 0.39 0.66 0.66 0.70 0.68 0.67 0.68 0.70 0.70 0.69 0.69 0.71 0.72 0.73 0.74 0.77 0.80 0.81 0.82 0.84 0.86 0.89 0.93 0.97 1.02 1.05 1.10 1.14 1.15 1.16 1.18 1.18 1.21 1.21 1.19 1.18 1.18 1.23 1.32 1.33 1.33 1.32 1.28 1.30 1.32 1.32 1.30 1.28 1.26 1.27 1.28 1.29 1.32 1.33 1.37 1.41 1.42 1.38 1.44
0.21 0.21 0.26 0.27 0.28 0.30 0.29 0.31 0.31 0.28 0.26 0.27 0.26 0.24 0.19 0.16 0.19 0.14 0.15 0.14 0.14 0.13 0.14 0.20 0.20 0.35 0.36 0.64 0.71 0.76 0.71 0.65 0.66 0.66 0.68 0.67 0.69 0.69 0.68 0.68 0.70 0.72 0.74 0.78 0.79 0.82 0.84 0.86 0.88 0.90 0.93 0.96 0.98 1.01 1.06 1.10 1.13 1.15 1.17 1.19 1.20 1.19 1.20 1.21 1.22 1.27 1.28 1.27 1.30 1.37 1.37 1.37 1.35 1.34 1.31 1.31 1.31 1.31 1.32 1.32 1.36 1.36 1.39 1.41 1.47 1.49
0.22 0.20 0.27 0.28 0.28 0.29 0.29 0.30 0.29 0.30 0.21 0.25 0.24 0.19 0.19 0.23 0.20 0.16 0.17 0.19 0.17 0.14 0.13 0.31 0.29 0.38 0.51 0.52 0.62 0.75 0.68 0.64 0.66 0.65 0.64 0.65 0.66 0.67 0.66 0.68 0.69 0.71 0.72 0.74 0.76 0.78 0.80 0.83 0.85 0.86 0.87 0.91 0.94 0.97 0.99 1.03 1.07 1.12 1.16 1.17 1.18 1.22 1.27 1.26 1.25 1.24 1.26 1.22 1.19 1.30 1.36 1.40 1.36 1.33 1.30 1.28 1.29 1.30 1.32 1.32 1.34 1.32 1.36 1.45 1.46 1.41
0.20 0.21 0.27 0.26 0.24 0.29 0.33 0.32 0.32 0.31 0.29 0.27 0.20 0.21 0.25 0.27 0.24 0.17 0.13 0.15 0.13 0.11 0.17 0.27 0.22 0.28 0.28 0.25 0.56 0.64 0.61 0.61 0.62 0.61 0.62 0.62 0.63 0.61 0.63 0.66 0.67 0.68 0.71 0.74 0.76 0.78 0.80 0.81 0.83 0.85 0.89 0.92 0.94 0.97 0.99 1.02 1.07 1.11 1.15 1.18 1.18 1.20 1.20 1.24 1.25 1.25 1.29 1.27 1.27 1.27 1.26 1.31 1.36 1.34 1.31 1.29 1.28 1.32 1.30 1.28 1.30 1.35 1.35 1.37 1.40 1.41
0.26 0.20 0.25 0.28 0.29 0.30 0.32 0.31 0.29 0.31 0.30 0.24 0.23 0.28 0.19 0.16 0.15 0.19 0.17 0.12 0.11 0.11 0.15 0.24 0.29 0.30 0.32 0.33 0.47 0.51 0.52 0.55 0.57 0.60 0.60 0.59 0.60 0.60 0.61 0.64 0.67 0.68 0.68 0.71 0.74 0.77 0.79 0.80 0.81 0.84 0.87 0.92 0.96 0.99 1.01 1.04 1.07 1.10 1.14 1.17 1.17 1.15 1.20 1.21 1.24 1.27 1.30 1.30 1.29 1.28 1.29 1.31 1.32 1.31 1.30 1.31 1.32 1.32 1.29 1.26 1.27 1.30 1.34 1.37 1.41 1.43
0.27 0.21 0.23 0.31 0.30 0.31 0.31 0.28 0.22 0.24 0.28 0.29 0.28 0.25 0.27 0.23 0.19 0.17 0.16 0.17 0.16 0.12 0.13 0.22 0.27 0.23 0.39 0.42 0.51 0.52 0.55 0.55 0.55 0.57 0.58 0.59 0.61 0.61 0.61 0.62 0.64 0.66 0.69 0.71 0.73 0.75 0.78 0.81 0.83 0.86 0.88 0.91 0.94 0.96 1.00 1.03 1.05 1.06 1.09 1.12 1.14 1.18 1.21 1.23 1.23 1.24 1.23 1.28 1.32 1.29 1.32 1.34 1.33 1.31 1.29 1.30 1.30 1.29 1.27 1.27 1.29 1.30 1.32 1.36 1.40 1.42
0.23 0.27 0.21 0.29 0.33 0.31 0.25 0.30 0.25 0.26 0.23 0.23 0.23 0.22 0.22 0.23 0.28 0.24 0.23 0.18 0.16 0.14 0.14 0.17 0.19 0.27 0.40 0.57 0.55 0.55 0.57 0.57 0.57 0.56 0.58 0.60 0.61 0.62 0.62 0.61 0.63 0.65 0.68 0.71 0.73 0.75 0.77 0.79 0.83 0.86 0.90 0.92 0.94 0.96 0.98 1.00 1.01 1.04 1.06 1.08 1.12 1.11 1.15 1.17 1.19 1.22 1.23 1.28 1.31 1.31 1.29 1.30 1.31 1.29 1.29 1.28 1.30 1.28 1.26 1.27 1.29 1.32 1.33 1.38 1.39 1.39
0.24 0.26 0.23 0.29 0.28 0.29 0.33 0.39 0.37 0.32 0.29 0.27 0.26 0.25 0.27 0.22 0.21 0.17 0.17 0.26 0.22 0.17 0.16 0.16 0.16 0.31 0.50 0.64 0.60 0.57 0.60 0.59 0.61 0.59 0.58 0.60 0.61 0.62 0.63 0.63 0.65 0.65 0.69 0.72 0.74 0.76 0.77 0.79 0.82 0.86 0.89 0.91 0.93 0.94 0.93 0.94 0.95 0.95 0.97 1.02 1.06 1.09 1.09 1.09 1.12 1.16 1.21 1.27 1.30 1.27 1.26 1.28 1.31 1.32 1.33 1.30 1.30 1.28 1.26 1.26 1.28 1.31 1.35 1.32 1.34 1.36
0.30 0.31 0.29 0.27 0.32 0.34 0.38 0.45 0.46 0.43 0.39 0.37 0.33 0.29 0.33 0.28 0.24 0.20 0.17 0.20 0.24 0.24 0.25 0.24 0.21 0.29 0.58 0.62 0.61 0.60 0.60 0.61 0.62 0.62 0.61 0.62 0.62 0.63 0.63 0.64 0.66 0.67 0.68 0.71 0.73 0.74 0.77 0.79 0.80 0.81 0.83 0.84 0.86 0.87 0.87 0.87 0.88 0.89 0.91 0.94 0.98 1.00 1.05 1.09 1.11 1.15 1.18 1.19 1.20 1.24 1.28 1.28 1.28 1.30 1.29 1.30 1.30 1.28 1.28 1.28 1.28 1.30 1.29 1.29 1.29 1.31
0.36 0.29 0.28 0.32 0.37 0.40 0.42 0.45 0.47 0.45 0.41 0.35 0.37 0.41 0.35 0.29 0.30 0.26 0.23 0.26 0.24 0.26 0.22 0.23 0.20 0.33 0.55 0.63 0.62 0.62 0.63 0.64 0.65 0.64 0.62 0.61 0.62 0.62 0.63 0.63 0.65 0.66 0.70 0.73 0.74 0.75 0.75 0.76 0.77 0.78 0.78 0.78 0.80 0.81 0.82 0.83 0.83 0.84 0.85 0.87 0.91 0.95 1.01 1.04 1.09 1.13 1.15 1.16 1.18 1.22 1.28 1.32 1.34 1.29 1.29 1.29 1.30 1.30 1.32 1.29 1.27 1.29 1.29 1.30 1.31 1.25
0.26 0.33 0.29 0.26 0.28 0.31 0.34 0.36 0.38 0.44 0.41 0.38 0.37 0.41 0.42 0.39 0.36 0.34 0.32 0.33 0.24 0.27 0.27 0.22 0.19 0.31 0.50 0.61 0.62 0.62 0.62 0.62 0.62 0.65 0.65 0.61 0.63 0.63 0.64 0.64 0.65 0.66 0.68 0.70 0.72 0.72 0.73 0.73 0.73 0.73 0.74 0.75 0.75 0.76 0.77 0.79 0.81 0.81 0.81 0.80 0.83 0.89 0.96 1.01 1.06 1.10 1.12 1.13 1.14 1.17 1.22 1.29 1.32 1.32 1.33 1.29 1.31 1.31 1.33 1.31 1.29 1.30 1.29 1.29 1.29 1.32
0.32 0.33 0.29 0.22 0.20 0.19 0.19 0.21 0.23 0.28 0.35 0.41 0.43 0.42 0.43 0.39 0.36 0.32 0.26 0.28 0.23 0.30 0.29 0.25 0.27 0.41 0.51 0.57 0.58 0.59 0.58 0.58 0.61 0.63 0.65 0.66 0.63 0.62 0.63 0.63 0.63 0.64 0.65 0.67 0.69 0.70 0.70 0.71 0.73 0.73 0.73 0.73 0.73 0.73 0.74 0.75 0.75 0.77 0.79 0.79 0.81 0.82 0.87 0.94 1.02 1.06 1.10 1.13 1.13 1.12 1.11 1.20 1.26 1.30 1.30 1.33 1.35 1.35 1.37 1.32 1.31 1.30 1.28 1.26 1.28 1.33
0.34 0.38 0.33 0.28 0.24 0.21 0.24 0.29 0.38 0.39 0.38 0.33 0.39 0.40 0.41 0.42 0.40 0.36 0.33 0.28 0.24 0.31 0.29 0.33 0.34 0.38 0.42 0.47 0.50 0.53 0.55 0.55 0.56 0.58 0.59 0.60 0.63 0.65 0.64 0.63 0.62 0.62 0.64 0.65 0.66 0.68 0.70 0.69 0.68 0.69 0.71 0.71 0.72 0.72 0.73 0.73 0.73 0.73 0.74 0.75 0.78 0.81 0.83 0.88 0.94 1.00 1.04 1.07 1.10 1.11 1.06 1.06 1.12 1.16 1.22 1.27 1.29 1.32 1.32 1.34 1.36 1.30 1.27 1.26 1.31 1.31
0.38 0.33 0.35 0.32 0.32 0.33 0.36 0.36 0.40 0.39 0.35 0.39 0.39 0.39 0.42 0.41 0.41 0.36 0.31 0.29 0.37 0.31 0.26 0.39 0.42 0.36 0.39 0.45 0.48 0.50 0.53 0.55 0.56 0.57 0.58 0.59 0.61 0.63 0.62 0.62 0.63 0.63 0.63 0.64 0.64 0.65 0.65 0.66 0.67 0.67 0.68 0.69 0.71 0.72 0.73 0.73 0.72 0.71 0.72 0.73 0.76 0.78 0.79 0.82 0.88 0.94 0.99 1.02 1.02 1.03 1.05 1.08 1.10 1.13 1.21 1.30 1.31 1.30 1.28 1.26 1.29 1.32 1.31 1.26 1.27 1.28
0.39 0.34 0.41 0.36 0.37 0.39 0.41 0.40 0.42 0.41 0.39 0.41 0.42 0.42 0.41 0.43 0.40 0.36 0.38 0.41 0.40 0.31 0.29 0.39 0.42 0.38 0.41 0.45 0.49 0.51 0.54 0.54 0.56 0.58 0.60 0.62 0.62 0.61 0.62 0.62 0.61 0.61 0.61 0.61 0.63 0.65 0.64 0.64 0.65 0.66 0.67 0.68 0.69 0.70 0.70 0.71 0.72 0.72 0.72 0.72 0.73 0.74 0.76 0.79 0.80 0.82 0.89 0.95 0.97 1.01 1.06 1.11 1.12 1.15 1.18 1.23 1.27 1.26 1.27 1.25 1.24 1.28 1.28 1.26 1.24 1.25
0.42 0.38 0.42 0.41 0.39 0.40 0.42 0.42 0.42 0.39 0.41 0.40 0.41 0.42 0.44 0.42 0.42 0.42 0.41 0.44 0.43 0.40 0.44 0.43 0.43 0.42 0.45 0.48 0.51 0.55 0.59 0.59 0.60 0.62 0.62 0.60 0.60 0.61 0.61 0.61 0.60 0.62 0.60 0.61 0.62 0.64 0.65 0.65 0.65 0.66 0.66 0.66 0.67 0.68 0.69 0.70 0.70 0.71 0.71 0.71 0.72 0.72 0.74 0.75 0.75 0.76 0.79 0.85 0.91 0.97 1.03 1.09 1.12 1.17 1.18 1.18 1.22 1.26 1.26 1.26 1.25 1.24 1.24 1.23 1.23 1.25
0.39 0.39 0.44 0.42 0.38 0.40 0.44 0.44 0.43 0.41 0.39 0.36 0.42 0.43 0.43 0.43 0.42 0.44 0.43 0.43 0.45 0.44 0.46 0.45 0.42 0.41 0.50 0.55 0.55 0.59 0.60 0.61 0.61 0.59 0.58 0.59 0.61 0.61 0.61 0.62 0.63 0.62 0.61 0.62 0.63 0.64 0.65 0.65 0.65 0.65 0.65 0.65 0.66 0.68 0.68 0.69 0.70 0.71 0.71 0.71 0.72 0.72 0.73 0.74 0.73 0.74 0.75 0.77 0.82 0.89 0.96 1.02 1.08 1.13 1.16 1.19 1.22 1.26 1.26 1.25 1.27 1.25 1.22 1.21 1.22 1.20
0.39 0.40 0.45 0.41 0.33 0.36 0.43 0.43 0.42 0.43 0.41 0.39 0.39 0.41 0.42 0.41 0.37 0.41 0.39 0.45 0.43 0.41 0.44 0.45 0.41 0.40 0.49 0.55 0.57 0.57 0.58 0.57 0.56 0.56 0.57 0.58 0.60 0.60 0.61 0.61 0.61 0.60 0.59 0.61 0.62 0.65 0.64 0.64 0.64 0.64 0.63 0.64 0.66 0.67 0.67 0.67 0.68 0.68 0.69 0.70 0.71 0.73 0.74 0.74 0.73 0.73 0.74 0.75 0.79 0.82 0.85 0.92 1.01 1.08 1.15 1.20 1.21 1.22 1.25 1.25 1.23 1.21 1.21 1.20 1.24 1.19
0.34 0.36 0.34 0.35 0.30 0.34 0.42 0.44 0.41 0.40 0.38 0.33 0.36 0.41 0.44 0.43 0.44 0.46 0.47 0.50 0.49 0.50 0.44 0.40 0.41 0.51 0.54 0.57 0.54 0.55 0.56 0.56 0.56 0.56 0.55 0.57 0.58 0.59 0.60 0.59 0.58 0.58 0.59 0.61 0.61 0.62 0.62 0.63 0.63 0.64 0.64 0.64 0.65 0.65 0.66 0.67 0.66 0.66 0.68 0.69 0.71 0.73 0.72 0.72 0.72 0.72 0.72 0.73 0.74 0.76 0.81 0.86 0.91 0.99 1.09 1.17 1.21 1.24 1.24 1.25 1.23 1.21 1.18 1.18 1.21 1.22
0.36 0.35 0.33 0.36 0.27 0.33 0.39 0.41 0.42 0.34 0.23 0.26 0.46 0.52 0.50 0.44 0.44 0.41 0.42 0.46 0.50 0.51 0.48 0.52 0.52 0.55 0.56 0.56 0.54 0.54 0.56 0.57 0.58 0.59 0.61 0.60 0.59 0.59 0.59 0.59 0.58 0.59 0.60 0.61 0.61 0.60 0.62 0.63 0.64 0.64 0.65 0.65 0.66 0.66 0.67 0.67 0.66 0.67 0.69 0.70 0.71 0.71 0.71 0.71 0.71 0.71 0.71 0.73 0.74 0.74 0.77 0.83 0.89 0.94 1.01 1.11 1.19 1.24 1.27 1.23 1.21 1.19 1.20 1.21 1.22 1.20
0.34 0.34 0.32 0.36 0.29 0.30 0.37 0.37 0.30 0.23 0.24 0.42 0.51 0.53 0.53 0.51 0.49 0.45 0.47 0.49 0.51 0.53 0.53 0.51 0.51 0.52 0.55 0.56 0.57 0.58 0.59 0.60 0.61 0.60 0.61 0.62 0.62 0.61 0.60 0.59 0.59 0.59 0.59 0.60 0.60 0.60 0.62 0.63 0.64 0.65 0.65 0.66 0.66 0.67 0.67 0.66 0.67 0.68 0.68 0.69 0.68 0.70 0.70 0.71 0.70 0.70 0.71 0.72 0.73 0.75 0.75 0.78 0.84 0.93 0.98 1.05 1.12 1.20 1.23 1.25 1.22 1.23 1.22 1.21 1.20 1.16
0.30 0.30 0.33 0.33 0.35 0.36 0.32 0.30 0.20 0.21 0.38 0.45 0.47 0.49 0.52 0.51 0.49 0.46 0.43 0.47 0.51 0.52 0.52 0.50 0.51 0.53 0.54 0.54 0.55 0.57 0.58 0.59 0.60 0.62 0.62 0.63 0.63 0.61 0.59 0.59 0.60 0.62 0.62 0.63 0.62 0.63 0.63 0.63 0.63 0.63 0.64 0.66 0.66 0.66 0.66 0.65 0.67 0.67 0.67 0.69 0.67 0.68 0.69 0.70 0.71 0.71 0.72 0.72 0.73 0.74 0.76 0.77 0.79 0.86 0.96 1.02 1.07 1.16 1.23 1.24 1.22 1.19 1.20 1.19 1.17 1.16
0.30 0.30 0.30 0.27 0.35 0.26 0.28 0.28 0.26 0.37 0.36 0.39 0.39 0.42 0.45 0.39 0.41 0.40 0.33 0.40 0.50 0.52 0.51 0.49 0.50 0.51 0.52 0.53 0.54 0.53 0.54 0.55 0.54 0.56 0.62 0.63 0.63 0.62 0.61 0.61 0.61 0.62 0.63 0.63 0.63 0.63 0.64 0.64 0.63 0.62 0.63 0.63 0.63 0.63 0.63 0.64 0.65 0.65 0.65 0.65 0.66 0.66 0.67 0.68 0.69 0.71 0.72 0.73 0.75 0.76 0.77 0.78 0.78 0.81 0.88 0.97 1.04 1.07 1.17 1.22 1.18 1.17 1.20 1.17 1.13 1.11
0.33 0.25 0.30 0.24 0.28 0.31 0.26 0.23 0.24 0.24 0.20 0.29 0.40 0.48 0.51 0.52 0.51 0.50 0.42 0.38 0.50 0.52 0.54 0.51 0.49 0.50 0.50 0.50 0.50 0.51 0.52 0.47 0.44 0.48 0.57 0.61 0.63 0.61 0.62 0.62 0.63 0.62 0.62 0.63 0.63 0.62 0.61 0.61 0.61 0.62 0.61 0.60 0.59 0.60 0.61 0.62 0.62 0.62 0.61 0.62 0.64 0.64 0.65 0.66 0.68 0.71 0.73 0.74 0.76 0.78 0.79 0.80 0.80 0.79 0.84 0.91 0.97 1.02 1.05 1.14 1.17 1.16 1.17 1.15 1.10 1.08
0.32 0.32 0.32 0.25 0.26 0.27 0.25 0.21 0.19 0.17 0.21 0.34 0.39 0.45 0.50 0.54 0.52 0.50 0.39 0.31 0.46 0.52 0.54 0.53 0.50 0.50 0.50 0.50 0.50 0.53 0.47 0.40 0.41 0.48 0.56 0.60 0.61 0.62 0.61 0.62 0.63 0.63 0.63 0.63 0.63 0.61 0.61 0.61 0.60 0.59 0.59 0.58 0.57 0.59 0.60 0.60 0.59 0.59 0.59 0.60 0.61 0.62 0.62 0.63 0.67 0.70 0.72 0.75 0.78 0.80 0.81 0.81 0.82 0.81 0.82 0.87 0.92 1.01 1.04 1.06 1.13 1.15 1.16 1.15 1.13 1.10
0.26 0.26 0.27 0.24 0.23 0.25 0.23 0.19 0.18 0.22 0.22 0.34 0.41 0.46 0.50 0.55 0.53 0.44 0.24 0.25 0.43 0.50 0.53 0.53 0.50 0.50 0.50 0.52 0.53 0.50 0.45 0.39 0.41 0.48 0.58 0.60 0.62 0.63 0.62 0.62 0.63 0.63 0.64 0.65 0.66 0.66 0.65 0.64 0.62 0.59 0.58 0.58 0.59 0.61 0.60 0.59 0.58 0.57 0.57 0.58 0.59 0.59 0.59 0.61 0.64 0.68 0.73 0.75 0.78 0.81 0.83 0.84 0.83 0.84 0.85 0.86 0.90 0.93 1.02 1.04 1.07 1.12 1.12 1.13 1.13 1.10
0.21 0.22 0.22 0.19 0.21 0.23 0.22 0.21 0.24 0.26 0.34 0.41 0.43 0.48 0.51 0.55 0.47 0.27 0.20 0.32 0.47 0.50 0.53 0.54 0.52 0.53 0.54 0.53 0.53 0.47 0.50 0.51 0.52 0.57 0.60 0.61 0.60 0.60 0.62 0.63 0.63 0.64 0.63 0.64 0.65 0.67 0.66 0.65 0.65 0.63 0.62 0.62 0.62 0.63 0.62 0.60 0.57 0.56 0.56 0.56 0.57 0.57 0.58 0.60 0.62 0.66 0.68 0.72 0.76 0.80 0.82 0.85 0.86 0.85 0.86 0.89 0.91 0.92 0.96 1.00 1.00 1.05 1.07 1.09 1.09 1.08
0.22 0.22 0.24 0.23 0.20 0.19 0.20 0.18 0.19 0.25 0.35 0.42 0.46 0.49 0.53 0.43 0.26 0.25 0.41 0.50 0.50 0.50 0.54 0.54 0.52 0.53 0.54 0.53 0.52 0.52 0.54 0.57 0.58 0.59 0.58 0.59 0.59 0.61 0.62 0.63 0.64 0.65 0.66 0.66 0.66 0.66 0.65 0.65 0.64 0.64 0.63 0.64 0.64 0.64 0.64 0.62 0.59 0.58 0.57 0.57 0.56 0.57 0.60 0.60 0.59 0.60 0.64 0.66 0.71 0.76 0.80 0.83 0.85 0.89 0.89 0.89 0.90 0.94 0.94 0.96 0.97 1.01 1.03 1.04 1.04 1.05
0.23 0.19 0.19 0.20 0.23 0.23 0.22 0.18 0.16 0.12 0.30 0.43 0.46 0.44 0.49 0.33 0.35 0.46 0.49 0.51 0.53 0.52 0.52 0.52 0.53 0.53 0.54 0.52 0.54 0.54 0.55 0.55 0.55 0.56 0.58 0.59 0.59 0.60 0.61 0.62 0.62 0.62 0.63 0.63 0.63 0.64 0.64 0.62 0.62 0.63 0.63 0.64 0.65 0.65 0.64 0.62 0.58 0.57 0.57 0.57 0.59 0.60 0.61 0.62 0.61 0.59 0.58 0.60 0.63 0.69 0.75 0.80 0.83 0.85 0.89 0.92 0.94 0.92 0.92 0.94 0.96 0.96 0.99 1.01 1.00 1.00
0.34 0.22 0.22 0.24 0.28 0.20 0.18 0.15 0.16 0.26 0.37 0.46 0.44 0.34 0.42 0.45 0.51 0.52 0.50 0.47 0.52 0.52 0.51 0.51 0.52 0.54 0.54 0.53 0.53 0.54 0.54 0.54 0.55 0.57 0.57 0.58 0.59 0.59 0.60 0.60 0.61 0.61 0.61 0.62 0.61 0.61 0.60 0.59 0.59 0.59 0.60 0.61 0.62 0.63 0.62 0.59 0.56 0.56 0.55 0.56 0.60 0.61 0.60 0.61 0.63 0.62 0.59 0.57 0.57 0.61 0.67 0.73 0.78 0.82 0.85 0.88 0.92 0.95 0.93 0.91 0.92 0.93 0.92 0.92 0.93 0.93
0.37 0.30 0.32 0.25 0.33 0.26 0.24 0.27 0.34 0.39 0.43 0.48 0.49 0.47 0.48 0.52 0.54 0.53 0.52 0.51 0.51 0.53 0.56 0.53 0.53 0.55 0.55 0.54 0.52 0.52 0.51 0.54 0.54 0.57 0.55 0.56 0.56 0.56 0.55 0.56 0.57 0.57 0.58 0.59 0.59 0.60 0.59 0.58 0.57 0.57 0.57 0.58 0.59 0.60 0.60 0.59 0.57 0.55 0.54 0.57 0.60 0.60 0.60 0.59 0.58 0.60 0.60 0.60 0.59 0.57 0.60 0.65 0.70 0.75 0.81 0.83 0.87 0.88 0.91 0.93 0.92 0.87 0.89 0.90 0.89 0.88
0.43 0.42 0.44 0.36 0.34 0.40 0.41 0.42 0.44 0.43 0.45 0.47 0.50 0.52 0.49 0.51 0.53 0.54 0.53 0.51 0.53 0.55 0.56 0.53 0.54 0.54 0.54 0.54 0.51 0.52 0.53 0.54 0.54 0.54 0.53 0.54 0.53 0.53 0.55 0.55 0.56 0.57 0.58 0.58 0.57 0.57 0.57 0.56 0.55 0.54 0.53 0.55 0.57 0.58 0.58 0.57 0.57 0.55 0.55 0.57 0.58 0.59 0.60 0.59 0.57 0.56 0.57 0.58 0.59 0.59 0.59 0.59 0.63 0.68 0.73 0.77 0.81 0.83 0.88 0.88 0.89 0.90 0.89 0.89 0.88 0.87
0.43 0.45 0.41 0.32 0.38 0.32 0.26 0.39 0.41 0.43 0.47 0.48 0.49 0.51 0.52 0.52 0.52 0.54 0.53 0.52 0.53 0.54 0.54 0.54 0.53 0.53 0.53 0.54 0.53 0.52 0.53 0.54 0.52 0.52 0.52 0.52 0.51 0.51 0.52 0.52 0.53 0.53 0.52 0.49 0.49 0.49 0.49 0.49 0.48 0.47 0.47 0.47 0.50 0.54 0.55 0.55 0.56 0.57 0.57 0.56 0.57 0.58 0.59 0.59 0.57 0.56 0.55 0.56 0.57 0.58 0.58 0.58 0.59 0.64 0.68 0.72 0.74 0.78 0.81 0.83 0.84 0.85 0.85 0.85 0.86 0.86
0.34 0.47 0.37 0.35 0.35 0.30 0.32 0.39 0.43 0.48 0.49 0.51 0.51 0.50 0.49 0.51 0.53 0.54 0.53 0.52 0.51 0.52 0.51 0.51 0.51 0.50 0.51 0.49 0.49 0.47 0.46 0.48 0.46 0.46 0.46 0.47 0.47 0.48 0.48 0.48 0.46 0.45 0.44 0.42 0.40 0.40 0.41 0.41 0.41 0.42 0.43 0.43 0.45 0.47 0.49 0.50 0.51 0.52 0.53 0.55 0.56 0.56 0.56 0.56 0.56 0.55 0.54 0.54 0.56 0.56 0.56 0.56 0.57 0.57 0.59 0.64 0.69 0.73 0.76 0.79 0.81 0.80 0.80 0.82 0.82 0.81
0.40 0.43 0.31 0.35 0.32 0.36 0.42 0.44 0.46 0.48 0.48 0.48 0.50 0.52 0.53 0.52 0.50 0.48 0.48 0.47 0.47 0.46 0.47 0.47 0.46 0.43 0.42 0.40 0.42 0.40 0.39 0.39 0.40 0.40 0.40 0.41 0.40 0.39 0.38 0.37 0.37 0.37 0.35 0.32 0.31 0.31 0.31 0.34 0.35 0.38 0.39 0.39 0.42 0.43 0.44 0.45 0.47 0.49 0.49 0.50 0.51 0.51 0.50 0.52 0.53 0.53 0.52 0.52 0.53 0.54 0.55 0.55 0.55 0.56 0.56 0.56 0.58 0.63 0.67 0.72 0.75 0.78 0.80 0.83 0.85 0.83
0.39 0.33 0.39 0.36 0.31 0.31 0.32 0.38 0.45 0.35 0.35 0.43 0.47 0.48 0.48 0.47 0.44 0.42 0.42 0.41 0.40 0.39 0.39 0.37 0.37 0.38 0.38 0.37 0.36 0.36 0.34 0.34 0.35 0.34 0.32 0.32 0.31 0.30 0.30 0.30 0.30 0.28 0.26 0.25 0.24 0.23 0.24 0.27 0.30 0.32 0.34 0.35 0.38 0.38 0.39 0.40 0.44 0.46 0.47 0.48 0.48 0.47 0.46 0.47 0.48 0.48 0.49 0.50 0.50 0.52 0.52 0.52 0.53 0.53 0.54 0.55 0.55 0.56 0.59 0.64 0.67 0.68 0.70 0.73 0.79 0.82
0.35 0.35 0.36 0.32 0.30 0.30 0.40 0.46 0.46 0.45 0.44 0.44 0.43 0.43 0.43 0.42 0.40 0.36 0.35 0.35 0.35 0.36 0.36 0.34 0.32 0.33 0.33 0.34 0.36 0.33 0.30 0.29 0.28 0.30 0.28 0.28 0.28 0.29 0.29 0.28 0.26 0.25 0.23 0.22 0.20 0.18 0.18 0.20 0.22 0.24 0.27 0.30 0.33 0.34 0.35 0.37 0.40 0.42 0.44 0.46 0.45 0.44 0.43 0.43 0.44 0.44 0.45 0.46 0.47 0.49 0.50 0.52 0.51 0.51 0.51 0.52 0.53 0.55 0.55 0.56 0.60 0.64 0.65 0.65 0.66 0.68
Wind_Speed
22 22 22 23 23 23 22 21 21 19 17 17 16 16 17 17 16 16 15 14 13 13 15 15 16 15 12 11 10 9 9 10 12 12 12 13 13 13 13 13 12 12 12 12 12 12 12 11 11 11 11 11 12 13 13 14 15 15 15 15 15 15 16 17 16 14 13 13 13 12 13 14 15 15 16 17 18 19 20 20 20 20 19 19 19 20
22 23 24 23 23 22 21 21 20 19 17 17 17 17 16 16 16 16 15 14 12 13 15 14 15 15 11 8 9 10 9 9 10 10 12 12 12 13 13 12 12 12 13 13 13 13 13 13 12 11 11 12 13 13 13 15 15 15 16 16 15 15 16 17 17 15 14 15 15 14 14 14 15 15 16 16 17 19 20 20 20 19 19 19 20 20
21 23 23 22 21 20 19 20 19 19 18 18 18 17 16 15 15 15 13 13 11 12 14 14 15 15 10 7 9 9 9 9 9 8 9 11 12 12 13 12 12 12 12 13 14 14 14 13 13 12 12 12 13 13 14 14 15 15 16 16 16 16 17 17 17 16 16 16 16 15 15 15 15 16 16 17 17 18 19 20 20 19 19 20 20 20
20 21 22 21 20 20 20 19 19 19 19 19 19 18 17 15 13 13 12 12 11 11 12 13 14 13 9 8 9 10 9 8 8 7 7 8 10 11 13 13 13 13 13 14 14 14 14 13 13 13 12 12 13 14 14 15 15 16 16 17 17 17 18 18 18 18 18 17 17 16 15 15 16 16 16 17 17 18 19 20 19 19 19 20 20 21
20 19 19 20 20 21 20 20 20 21 21 20 20 20 17 15 14 13 12 11 10 10 11 12 12 12 10 9 10 12 9 6 8 8 8 8 8 9 11 12 14 15 14 15 14 14 14 13 14 14 13 13 13 14 15 16 16 16 17 17 17 18 18 18 18 19 18 18 18 17 16 16 16 16 16 17 17 18 19 20 19 19 20 20 21 21
21 18 18 19 20 20 20 20 21 21 21 21 21 21 19 17 16 14 12 10 9 9 10 11 12 12 12 10 11 12 9 6 8 9 9 9 9 8 9 10 12 14 14 14 15 15 15 14 15 16 16 15 15 15 16 17 17 17 18 18 18 19 18 18 19 19 19 19 19 18 17 17 16 16 17 17 17 18 18 19 19 19 20 20 21 21
20 19 18 19 19 20 20 20 21 21 20 20 21 21 20 17 16 15 13 11 10 10 11 11 12 12 12 11 11 11 9 7 7 8 9 9 8 7 7 7 9 11 12 13 14 16 15 15 16 17 18 17 17 17 17 18 18 19 18 18 19 20 19 19 19 19 19 20 20 20 19 19 18 18 18 18 18 18 18 19 19 20 21 21 20 21
20 19 18 18 18 18 19 19 21 21 19 19 20 19 18 17 17 16 13 13 13 12 11 11 12 11 11 11 11 11 9 8 8 8 8 8 7 7 7 7 7 9 10 11 13 14 16 16 17 18 18 18 19 19 19 20 20 19 19 19 19 19 19 20 20 21 21 21 21 21 21 21 20 19 18 18 18 18 19 19 20 20 21 22 21 21
19 19 19 18 17 17 18 19 20 20 19 19 18 17 17 17 17 16 14 13 13 12 13 13 11 10 11 12 11 10 9 9 9 9 9 8 7 8 8 8 7 8 9 10 11 12 14 15 16 16 17 17 19 19 20 22 21 19 19 20 19 19 19 20 21 22 22 22 22 22 22 22 21 20 19 18 18 19 19 20 20 20 21 22 22 22
18 19 19 18 17 17 18 18 19 20 19 17 15 14 14 14 15 15 15 14 13 13 15 16 13 11 12 12 11 11 11 10 10 9 9 8 8 8 8 8 8 8 8 9 10 11 12 14 15 16 17 18 19 19 19 18 17 15 16 18 20 20 19 20 22 23 23 23 23 23 23 23 22 21 20 19 19 19 19 20 20 20 21 22 22 22
18 18 18 17 18 18 17 17 18 21 19 15 14 14 13 13 14 14 15 14 13 14 17 16 13 12 12 12 12 12 11 11 10 10 9 9 8 8 8 8 8 8 9 9 10 10 11 12 14 16 18 19 20 20 19 16 14 13 14 17 19 20 20 21 22 24 24 24 24 24 23 23 22 21 20 20 19 19 19 20 20 21 21 22 22 22
17 17 17 17 18 17 16 15 17 19 18 15 15 15 14 13 13 14 15 14 14 14 16 15 12 11 12 13 13 11 10 10 10 10 10 9 9 9 9 9 9 9 9 9 10 11 12 13 14 15 17 18 20 21 20 17 15 15 17 19 21 22 23 23 24 24 24 25 25 23 22 21 21 20 20 20 19 19 19 19 20 20 21 21 22 21
18 19 17 16 18 17 15 15 15 16 16 16 16 15 14 13 13 15 15 15 15 15 14 14 12 11 12 14 13 11 10 10 10 10 10 10 10 10 10 9 9 10 10 10 11 12 13 14 15 16 17 18 19 21 21 20 20 20 21 21 22 23 24 24 24 24 25 25 25 23 21 21 21 20 20 20 19 20 19 19 20 21 21 22 22 22
17 17 16 16 17 17 17 17 17 17 17 17 17 16 15 13 13 15 16 15 15 14 14 14 13 12 13 13 13 11 11 10 9 9 9 9 9 9 10 10 10 11 11 11 12 12 13 14 15 16 17 18 19 19 20 21 21 23 23 22 22 23 22 22 23 24 25 25 24 23 22 22 22 21 21 20 20 20 19 19 20 21 22 23 23 23
17 16 17 17 16 17 17 17 17 17 17 17 17 16 16 15 14 15 16 15 15 14 13 13 13 13 14 12 12 12 11 10 9 9 8 8 9 10 10 10 11 12 12 12 13 13 14 14 15 15 16 18 19 19 20 21 21 23 23 23 22 22 22 22 22 22 23 24 24 25 24 24 24 22 21 20 20 20 19 19 20 20 22 23 23 23
17 16 17 17 16 16 17 17 16 15 15 16 16 15 16 17 15 14 15 16 16 13 12 12 13 13 13 11 10 10 10 9 9 8 8 8 9 10 10 11 12 13 13 14 14 14 14 14 15 15 16 17 18 19 19 21 21 22 22 22 22 21 21 22 21 21 22 23 23 25 26 25 24 23 21 20 20 19 19 19 19 19 21 23 24 23
16 16 16 15 15 15 16 17 16 16 16 15 16 17 17 16 14 13 14 14 13 13 13 13 12 13 13 11 11 9 8 8 8 8 8 9 9 10 10 12 13 13 14 14 15 15 15 16 16 16 16 16 17 17 18 18 19 19 19 19 20 20 20 21 21 20 21 23 22 22 24 25 24 23 22 21 20 19 18 18 18 18 20 23 24 23
16 15 15 14 15 15 15 14 14 15 16 15 15 17 16 14 13 14 13 12 12 12 13 13 12 14 13 12 13 11 9 9 9 9 9 10 10 10 11 12 13 14 14 15 15 15 15 15 16 16 16 16 16 16 16 16 16 16 16 17 18 18 19 19 19 19 20 22 22 20 21 23 23 23 22 21 20 19 18 17 17 18 20 22 23 23
16 15 14 15 15 15 13 13 14 14 15 15 15 16 16 14 14 14 13 13 13 13 13 12 12 13 13 13 14 13 11 11 11 10 10 10 10 11 11 12 13 14 14 14 15 15 15 14 15 15 15 15 15 15 14 14 14 14 14 15 15 16 17 17 17 18 18 18 18 18 18 20 22 21 21 21 20 20 19 18 18 19 20 22 23 22
15 15 14 14 15 15 14 14 16 16 14 13 13 14 16 15 15 15 14 13 13 14 13 12 13 14 14 14 14 13 12 12 11 11 10 10 10 10 11 12 13 13 13 13 14 14 14 14 14 14 14 14 14 13 13 13 13 14 14 14 14 14 14 14 15 16 16 16 15 15 16 19 21 21 20 20 20 20 19 19 19 20 21 22 22 23
15 15 13 13 14 14 14 14 16 17 16 14 13 13 14 14 14 14 14 13 13 13 13 13 13 14 14 14 13 12 12 11 11 10 10 9 10 10 11 12 12 12 11 12 12 13 13 13 13 13 13 13 13 13 13 13 13 13 13 13 13 13 13 13 14 14 14 14 14 15 16 19 20 20 20 19 19 19 19 19 20 21 21 22 23 24
16 15 13 12 13 13 13 13 13 14 16 16 14 14 14 15 14 13 13 14 13 12 13 13 13 13 13 12 12 11 11 11 10 10 9 9 9 10 11 11 11 11 11 11 11 12 12 13 13 13 13 13 13 13 13 13 13 13 13 13 13 13 12 13 13 13 12 12 13 15 17 19 20 21 20 19 19 19 19 20 20 21 22 22 23 24
16 15 12 12 12 13 13 12 11 12 13 14 14 14 14 14 14 13 14 14 12 11 12 11 11 12 12 11 11 10 10 10 9 9 8 9 9 10 10 11 10 10 10 10 11 11 11 12 12 12 12 12 13 13 13 13 13 13 14 14 14 13 13 13 13 12 12 12 12 14 16 18 20 21 20 19 19 19 19 20 20 21 22 23 24 25
15 14 13 12 11 12 13 12 11 10 11 12 13 13 13 13 14 14 14 14 12 11 11 10 10 12 12 11 11 10 9 9 9 8 8 9 9 9 10 10 10 9 9 9 9 10 10 11 11 11 12 12 13 13 14 13 13 14 14 14 15 15 14 14 14 13 12 12 12 13 14 16 18 19 20 20 20 20 20 20 20 21 22 23 24 25
15 14 14 13 11 11 11 12 12 11 11 12 12 12 12 12 13 13 13 12 11 12 12 11 12 13 12 12 11 11 10 9 9 8 7 8 8 9 9 9 9 8 8 8 9 9 10 10 11 11 11 12 12 13 13 14 14 14 14 14 15 15 15 15 14 14 13 13 13 12 12 13 15 17 19 21 21 20 20 20 20 21 22 22 23 24
14 14 15 15 14 14 13 13 14 13 12 12 12 11 11 11 12 13 13 12 12 13 12 11 12 12 12 12 12 11 11 10 9 8 8 8 8 8 8 8 8 8 8 8 8 9 10 10 11 11 11 11 12 12 13 14 14 14 15 15 15 15 16 16 15 15 14 14 13 13 13 13 14 15 17 19 20 20 21 21 20 21 22 22 22 23
14 13 14 15 16 16 16 15 15 14 13 13 12 11 11 12 12 12 13 13 14 13 12 12 14 13 12 12 12 12 11 11 10 9 9 9 9 9 9 8 8 8 8 8 8 9 9 9 10 11 11 11 11 12 12 13 13 14 15 15 15 15 16 16 16 16 16 15 14 14 15 14 14 14 15 16 18 19 20 21 20 21 22 22 22 23
13 12 12 13 13 13 14 13 13 12 12 13 13 12 12 12 12 12 13 14 14 14 13 14 14 13 13 13 13 13 12 11 11 10 10 10 10 10 10 9 8 8 8 8 8 8 8 9 9 10 10 11 11 12 12 12 13 13 14 15 15 16 16 15 16 16 16 16 16 15 15 16 15 15 16 16 17 18 19 20 21 21 22 22 22 23
14 13 12 12 11 11 11 11 11 11 11 11 11 12 11 11 11 12 13 14 15 15 15 14 14 13 14 13 13 13 12 11 11 10 10 10 10 10 10 9 9 9 8 8 8 8 8 9 10 10 11 11 12 12 13 13 13 13 13 14 15 16 16 16 16 16 16 17 17 17 17 17 17 17 17 17 17 17 18 20 21 21 22 23 23 23
14 13 13 13 12 10 11 11 11 10 11 10 10 11 11 10 10 11 12 13 13 13 14 14 13 13 14 13 13 12 11 11 10 10 10 10 10 10 9 9 9 9 8 8 8 9 9 9 10 11 11 12 12 13 13 13 13 13 14 14 15 15 16 16 16 16 16 16 17 18 19 19 19 19 19 19 18 18 18 20 22 22 23 24 23 23
13 14 15 14 13 12 12 12 11 11 10 10 10 11 11 11 11 11 12 13 13 14 14 14 14 15 15 13 12 11 12 11 10 10 10 10 10 9 8 8 8 8 8 8 9 9 9 10 10 11 12 12 13 13 13 13 13 14 14 14 15 15 16 16 16 16 16 16 16 17 19 20 21 21 22 21 20 20 20 21 22 23 24 24 24 24
12 14 15 14 14 13 14 14 12 12 11 9 9 10 11 11 12 12 12 13 14 15 15 15 16 16 16 13 12 12 11 10 10 10 10 10 10 9 8 8 8 9 9 9 9 10 10 10 11 12 12 12 13 13 13 14 14 14 14 15 15 15 16 16 16 16 16 16 16 16 17 19 21 23 23 24 23 22 23 23 23 24 25 26 26 25
13 14 14 14 14 14 15 16 14 13 12 11 11 12 12 12 11 11 11 11 12 13 14 15 16 16 16 14 13 12 12 11 12 12 11 11 11 10 9 9 9 10 10 10 10 10 11 11 11 12 12 12 13 13 13 14 14 14 14 15 15 15 16 16 16 16 16 16 16 16 17 18 20 22 23 25 25 25 24 24 24 24 25 26 27 27
11 12 13 13 13 14 16 15 14 13 13 13 13 13 13 12 11 10 10 10 11 12 13 13 13 14 14 13 12 12 11 11 11 11 11 12 11 10 9 9 10 10 10 10 10 11 11 12 12 12 12 12 12 12 13 13 13 14 14 15 15 15 16 16 16 16 16 16 17 17 17 17 18 20 22 24 25 26 26 26 26 25 25 26 28 28
11 11 12 12 12 14 14 13 13 14 14 13 12 12 11 11 10 9 9 10 10 11 11 11 12 12 12 11 11 10 9 9 9 9 10 10 11 11 11 10 10 10 10 10 11 11 12 12 12 12 12 12 12 12 13 13 14 14 14 15 15 15 16 16 16 17 17 17 17 17 17 17 17 17 19 22 24 25 26 27 26 25 25 26 28 29
11 11 11 11 12 13 13 12 13 14 14 13 13 12 12 12 11 10 10 10 11 11 12 11 11 11 11 10 10 9 9 8 8 9 10 11 11 12 11 11 11 11 11 11 11 12 12 12 12 13 13 12 12 12 13 13 14 14 15 15 15 15 15 16 16 16 17 17 17 17 17 17 16 16 17 20 21 23 26 27 26 26 25 26 28 29
10 11 12 11 11 12 12 11 11 12 13 14 13 13 13 13 13 12 12 12 12 12 13 13 12 12 12 11 11 10 10 10 10 11 11 11 12 12 12 12 12 11 11 11 11 11 11 11 12 13 13 13 13 13 13 13 14 14 14 15 14 15 15 16 16 17 17 17 17 17 16 16 16 15 16 18 19 21 24 27 27 26 26 26 28 29
9 11 12 12 11 12 12 11 11 12 14 14 13 13 12 13 13 13 13 13 13 13 13 14 14 14 14 14 14 13 12 12 12 13 13 12 12 12 12 12 12 12 12 11 11 11 11 11 12 13 13 13 13 13 14 14 15 15 15 15 15 15 15 16 16 17 16 16 16 16 16 15 15 14 14 15 17 19 22 25 27 27 26 26 27 28
7 9 10 10 11 12 12 12 12 13 13 13 14 14 13 13 13 13 13 14 14 13 13 15 15 15 15 15 15 14 14 13 14 14 14 13 13 12 12 12 12 12 12 12 12 12 12 12 13 13 13 14 14 14 15 15 16 15 15 16 16 16 16 16 17 17 16 15 15 14 14 14 14 14 13 12 13 15 18 22 25 26 27 27 27 28
8 9 10 10 11 12 12 11 12 13 13 13 14 14 13 13 13 13 12 13 13 13 13 14 15 15 15 14 13 13 13 13 14 14 14 13 13 12 12 11 12 12 12 12 13 13 13 13 14 14 15 15 15 15 15 16 16 15 15 15 15 15 16 17 16 16 15 14 13 13 13 13 12 13 12 10 10 13 15 18 22 24 25 26 27 29
10 10 10 11 11 12 12 11 11 12 12 13 13 14 13 13 13 13 12 12 12 12 12 13 13 13 13 12 11 11 11 11 11 11 12 12 11 11 11 11 11 12 12 13 13 13 13 14 14 14 15 15 15 15 15 15 15 15 15 14 14 14 15 15 15 15 14 14 13 12 12 12 10 10 11 8 6 10 13 16 18 21 23 24 26 28
11 10 10 11 11 12 12 11 11 11 12 12 12 13 12 12 13 13 12 11 11 11 11 11 11 11 11 10 9 9 9 9 9 9 10 10 9 9 10 10 11 11 11 12 12 13 13 13 14 14 15 15 14 14 14 14 14 14 14 14 14 14 14 14 13 14 13 13 12 12 11 11 9 9 8 8 5 4 9 13 15 18 20 21 22 25
11 10 11 11 11 11 11 10 11 11 11 11 12 12 11 12 12 11 11 10 10 10 10 10 10 10 10 9 8 8 8 8 9 9 9 9 9 9 9 9 9 10 10 10 11 12 12 13 13 13 14 14 14 14 14 14 14 14 14 13 13 14 13 13 13 12 12 12 12 11 10 10 9 8 7 6 5 3 5 10 13 15 18 19 20 21
11 11 11 12 12 11 11 11 11 11 11 11 11 11 11 11 11 11 10 10 9 9 9 8 9 9 9 9 8 8 8 8 8 9 9 9 9 9 8 8 8 9 9 10 10 11 12 12 13 13 13 13 14 14 14 14 14 14 14 14 14 14 13 13 13 12 12 12 11 11 10 9 9 8 7 5 4 3 2 7 10 12 15 17 18 19
10 9 10 10 10 10 10 11 10 9 9 9 10 10 10 10 10 10 9 8 8 8 8 7 8 8 8 8 8 7 7 7 7 7 7 8 8 8 8 8 9 9 10 10 11 12 12 13 13 14 14 13 13 13 14 14 14 14 14 15 15 14 13 13 13 12 12 11 11 10 10 9 9 8 7 6 5 4 2 4 8 11 12 15 17 18
9 9 8 9 9 8 7 8 9 8 8 8 9 9 9 9 9 9 8 8 8 8 8 8 9 8 8 7 7 6 6 5 5 5 6 6 7 8 8 9 10 10 11 12 12 13 13 13 13 13 13 13 14 13 13 13 13 13 14 14 14 14 13 12 12 12 12 11 11 10 10 9 9 8 7 6 6 5 4 3 5 8 10 12 15 16
9 9 8 9 9 8 7 7 8 8 8 9 9 9 8 8 8 8 8 8 8 8 8 8 8 8 7 5 5 4 4 4 4 4 5 6 6 8 8 9 10 11 11 12 12 13 13 13 13 13 13 13 14 14 14 14 13 13 13 13 13 13 13 12 12 12 12 12 11 11 10 9 9 8 8 7 7 6 6 5 4 5 7 9 11 13
8 8 8 8 8 7 6 7 8 8 8 8 8 8 8 8 8 8 8 8 8 9 9 8 8 7 6 4 4 3 3 3 4 4 5 6 7 7 8 9 9 10 10 10 11 11 11 11 12 13 13 14 14 15 14 14 14 14 13 13 13 13 12 12 11 11 11 12 12 11 11 10 9 9 8 8 7 7 7 6 6 5 6 7 8 9
6 7 8 9 8 7 8 9 10 9 8 8 9 9 9 9 10 10 9 9 9 9 9 8 7 6 5 5 4 4 3 3 4 4 5 5 6 7 8 8 9 9 9 10 10 10 10 10 11 12 13 14 15 15 15 15 15 14 14 14 14 14 13 12 12 12 12 12 12 12 12 11 10 9 9 8 8 7 7 7 7 7 7 7 8 8
5 7 9 10 9 8 9 10 11 10 10 10 11 11 10 10 10 10 10 9 8 8 7 6 5 5 4 4 4 4 3 3 3 3 4 5 5 6 7 8 8 9 9 10 10 11 10 11 12 12 13 14 14 15 15 15 15 15 15 15 15 15 14 14 13 13 13 13 13 12 12 12 11 11 10 9 9 9 8 8 8 8 8 8 8 8
6 8 9 9 9 10 12 13 11 10 11 12 12 12 11 11 10 10 9 8 8 8 7 7 6 5 4 4 4 3 3 2 2 2 3 4 5 6 7 8 9 9 10 11 11 11 12 12 13 13 13 14 14 14 15 15 15 15 16 16 16 16 15 15 15 15 14 14 14 14 13 13 13 13 12 11 10 10 10 10 9 9 9 10 10 10
Wind_Direction
211 214 217 216 215 215 215 213 213 215 212 212 216 217 220 223 225 225 227 235 239 239 237 230 228 229 234 245 258 274 279 269 260 249 243 241 238 238 239 239 240 243 247 248 247 247 249 249 247 249 252 249 245 243 245 246 245 244 242 241 241 241 243 245 248 253 254 253 254 256 253 251 250 249 246 244 242 240 241 242 238 232 227 223 221 220
212 215 219 217 215 215 215 213 212 214 213 214 218 222 224 221 223 226 228 241 241 234 235 229 226 229 230 245 265 274 276 279 278 263 251 246 241 241 243 245 247 249 250 248 248 247 248 249 246 248 253 250 246 245 246 247 248 248 245 244 245 244 244 246 247 249 252 253 255 256 254 251 250 249 248 245 243 241 242 242 239 234 227 221 220 220
216 219 220 216 214 213 216 214 211 213 213 214 218 220 221 219 223 229 233 245 240 231 234 224 219 227 229 235 254 268 270 280 294 284 266 257 250 250 251 252 251 251 251 248 247 248 249 249 247 249 255 254 250 249 248 248 250 250 248 247 248 247 246 246 246 249 252 254 255 256 256 252 249 250 250 247 244 242 242 242 239 234 227 221 220 222
216 221 218 211 210 212 216 214 209 214 215 215 217 217 217 217 219 225 235 246 242 237 230 214 213 226 229 231 245 261 267 284 304 304 295 276 259 255 252 251 250 249 249 248 248 250 250 249 247 250 255 255 256 252 248 248 249 249 248 249 250 250 249 247 247 249 252 254 255 258 258 254 251 251 250 248 245 243 243 242 239 233 228 223 222 224
216 219 212 206 208 211 213 213 209 213 218 220 219 216 215 216 218 222 234 244 245 244 227 208 215 227 228 233 246 259 266 285 302 308 314 302 283 269 261 258 252 248 247 246 247 249 249 247 246 251 255 256 257 255 251 250 249 249 249 250 253 254 252 250 249 250 251 253 255 257 257 254 252 252 251 248 245 244 244 242 239 234 229 225 224 225
216 216 208 205 209 210 211 213 210 210 216 221 222 217 215 218 222 226 233 236 236 240 226 210 213 223 230 236 246 257 263 276 292 303 310 307 302 294 285 272 257 251 250 248 248 250 249 248 247 252 256 256 256 256 255 253 253 253 253 253 255 256 254 252 251 250 250 252 252 252 252 249 248 249 250 247 244 244 243 241 239 235 230 226 225 225
212 210 203 202 206 208 209 213 213 209 211 220 222 216 214 217 220 223 227 228 226 227 224 214 210 219 233 241 249 257 261 272 285 299 306 306 307 306 302 289 269 262 261 256 254 253 251 251 251 254 256 256 256 257 255 253 254 254 254 256 256 256 255 254 253 251 249 249 248 248 248 247 246 247 248 246 244 243 242 241 237 235 232 228 226 226
207 203 202 202 203 207 210 214 213 207 208 218 219 211 209 212 215 218 220 224 227 226 231 230 215 217 235 243 250 257 260 273 284 295 302 303 307 311 312 303 286 276 272 267 261 257 256 256 257 260 261 261 261 259 255 252 251 251 253 255 256 258 259 257 255 252 250 247 246 245 247 247 246 247 248 247 244 242 241 240 236 235 235 231 229 229
202 198 201 202 203 208 211 212 208 203 208 217 216 207 207 210 213 217 219 224 231 227 230 237 222 218 239 244 249 254 254 265 278 286 291 298 305 310 312 308 298 286 278 275 269 264 263 263 266 269 268 268 268 265 261 254 248 249 253 254 256 261 264 260 255 253 251 247 245 246 246 246 246 246 247 247 246 243 241 239 237 236 236 233 231 230
200 198 200 200 204 208 210 209 202 201 209 213 208 204 208 215 219 221 221 223 229 226 226 232 225 221 238 245 246 248 248 256 269 276 279 288 300 304 307 308 305 296 284 278 275 271 270 269 270 272 271 271 272 273 272 262 250 252 258 256 257 262 266 263 257 253 252 248 246 247 246 245 245 245 245 246 246 245 242 240 238 237 236 234 232 230
203 203 204 204 206 208 209 209 204 203 206 204 202 206 212 222 226 226 226 222 224 229 229 230 227 223 235 245 247 246 249 256 264 268 274 283 295 299 300 303 308 306 296 288 282 280 282 279 275 275 274 273 272 276 278 271 262 266 270 265 263 265 268 267 260 254 251 249 247 247 246 245 245 245 246 246 245 244 243 242 240 238 236 233 231 230
209 209 209 209 209 207 205 208 207 205 204 202 205 209 214 224 227 226 229 223 221 230 231 227 224 224 233 243 246 246 250 258 263 267 272 279 287 292 293 298 306 308 303 297 291 288 290 288 285 285 283 280 277 278 279 276 273 279 281 275 269 267 269 270 266 259 254 251 248 248 250 248 247 247 246 247 246 243 243 243 241 238 234 230 229 227
213 212 212 212 212 207 203 209 210 206 205 205 209 211 213 221 222 223 227 224 223 229 226 222 225 231 236 240 243 245 249 256 262 267 272 277 282 287 290 294 300 302 302 299 295 292 291 290 290 290 290 288 285 281 279 276 275 280 283 278 271 268 270 273 271 266 260 255 251 253 256 251 247 247 244 245 247 245 244 243 240 236 231 227 225 221
213 216 216 214 215 210 205 208 208 207 207 208 212 214 214 216 217 222 227 225 226 227 224 224 227 231 236 240 242 243 248 253 258 266 272 276 279 282 286 289 293 297 299 298 297 295 293 293 293 292 291 291 290 286 282 278 276 278 281 279 274 271 271 274 274 267 260 257 255 256 255 248 245 246 243 243 247 247 246 244 241 236 230 224 221 217
207 215 215 211 215 212 207 208 206 204 207 212 216 215 215 215 215 220 222 220 222 224 226 230 230 229 233 240 245 243 248 253 254 261 270 277 281 282 285 290 293 295 295 295 295 295 294 294 294 291 289 289 290 289 286 284 282 280 280 279 276 272 270 273 274 268 260 257 256 254 250 246 244 244 243 244 247 249 248 246 242 236 228 222 218 216
203 212 216 213 215 210 208 213 209 203 209 217 218 214 216 217 213 217 219 217 217 219 227 233 230 230 230 238 248 245 247 252 251 258 269 279 286 288 291 294 295 295 294 294 295 295 295 294 293 291 290 289 290 290 288 287 286 283 280 278 276 273 272 272 272 268 264 263 260 252 245 243 241 240 241 245 248 249 248 246 243 236 227 221 218 217
201 211 217 214 215 212 208 211 212 210 212 217 217 214 218 216 210 214 219 219 215 214 226 230 223 225 228 234 244 243 240 247 252 259 266 274 283 288 290 292 293 294 295 296 296 296 296 296 296 295 295 295 295 294 292 291 289 286 282 278 275 273 272 273 271 267 267 269 265 254 243 239 237 237 240 244 247 248 247 244 241 235 225 219 219 218
200 209 218 212 212 215 208 206 213 216 211 211 217 216 215 216 215 215 218 224 222 217 227 232 221 220 227 234 238 237 237 245 253 260 266 275 281 283 285 288 291 293 294 295 297 298 299 300 299 298 297 298 300 300 299 297 295 293 288 282 279 276 273 274 273 271 273 272 267 258 244 236 234 236 239 242 245 245 244 242 238 232 223 218 218 218
200 205 218 212 208 212 209 205 214 222 215 212 217 215 211 214 218 216 216 221 222 221 228 236 232 227 232 240 237 235 239 245 252 260 267 276 280 282 285 287 291 293 295 296 298 300 301 303 303 300 298 298 301 304 304 303 301 299 297 291 286 283 279 278 277 276 278 275 267 259 246 235 234 236 239 242 244 244 242 239 236 231 224 220 219 219
199 201 213 214 210 209 209 209 212 218 220 217 218 216 213 213 214 215 218 219 219 223 227 231 238 238 238 242 238 236 242 245 251 259 264 273 279 282 285 287 291 295 299 299 299 301 302 304 305 303 301 300 302 305 306 308 308 307 305 301 297 294 289 286 284 282 280 275 267 257 245 236 234 236 239 242 243 243 241 238 235 231 226 223 222 220
200 199 207 215 213 207 209 215 215 213 213 213 212 213 214 216 216 216 221 224 222 225 226 228 238 241 240 241 236 235 243 246 250 257 263 273 280 283 286 289 292 296 301 302 301 302 304 304 304 302 302 303 303 305 306 309 311 310 310 309 306 302 298 295 293 290 284 275 266 257 246 239 237 237 240 242 242 241 239 238 236 231 227 225 223 220
199 199 201 207 207 201 205 219 221 212 207 208 211 212 214 215 214 214 224 230 228 227 226 226 233 237 239 241 236 238 247 248 249 255 264 275 280 282 286 291 295 299 302 303 303 304 306 306 305 303 303 304 306 308 309 310 310 310 310 309 308 304 301 300 299 296 290 279 268 260 252 244 241 240 240 241 241 240 238 237 235 231 227 225 223 220
197 197 194 196 200 200 206 215 218 211 205 208 215 216 216 217 216 216 224 228 228 229 229 226 229 232 236 241 239 241 247 247 249 257 265 274 278 281 285 289 295 299 301 302 303 305 307 308 308 306 305 305 306 309 311 311 311 310 309 307 306 304 301 300 298 294 292 285 277 270 258 248 241 240 240 240 240 239 237 235 232 230 227 225 223 220
197 197 192 193 204 210 213 216 217 218 214 214 219 221 220 221 221 221 224 223 222 227 230 232 236 234 234 239 240 237 239 244 253 262 266 271 276 280 283 287 291 295 300 304 304 305 307 310 311 311 309 308 308 309 310 311 310 309 309 308 308 306 303 299 296 290 286 285 285 279 264 250 242 240 240 239 239 238 236 234 233 230 226 224 221 219
200 201 195 194 207 216 219 221 222 223 221 216 220 227 228 224 223 225 227 225 225 228 227 228 236 235 231 233 237 238 241 247 253 258 263 270 275 279 282 285 285 288 295 302 305 306 308 310 312 313 312 310 309 310 310 311 310 309 310 310 308 307 305 301 297 291 283 282 284 281 272 258 248 244 244 242 240 239 236 234 233 228 224 222 222 220
198 201 200 200 207 213 217 220 219 218 219 217 220 229 232 229 228 226 225 227 229 230 231 230 229 226 226 231 238 243 246 248 250 252 261 271 276 280 284 286 284 284 291 298 301 303 305 307 310 313 312 311 310 310 311 312 312 312 311 311 309 305 303 300 297 293 285 281 280 278 274 266 255 251 251 248 243 241 239 236 232 226 222 222 222 220
199 204 207 206 210 216 218 220 220 217 217 220 224 231 236 236 234 227 225 231 231 229 236 236 223 216 222 231 237 244 248 250 252 254 260 268 274 278 281 283 285 288 292 294 297 301 303 306 309 312 313 312 312 312 313 314 316 316 315 315 313 308 303 299 295 293 288 283 279 275 270 265 258 254 255 251 246 244 242 237 231 225 222 221 222 219
203 208 215 211 212 218 218 217 220 220 220 222 225 232 237 238 236 231 229 233 231 229 235 234 222 218 225 231 236 242 247 252 256 258 261 266 271 275 278 282 287 291 292 293 297 302 304 304 306 310 312 313 314 315 316 317 318 319 319 319 318 315 311 304 297 294 289 284 279 274 269 263 258 254 252 250 248 247 243 236 228 223 221 220 220 219
206 212 218 212 207 215 218 215 214 216 220 224 227 232 237 237 235 233 234 234 233 234 235 229 224 226 230 233 237 241 246 252 258 262 263 266 271 274 278 282 284 287 289 292 295 298 301 302 303 306 309 312 315 316 317 318 319 320 322 323 323 321 318 313 306 299 293 286 280 275 269 264 259 254 252 253 251 247 240 232 225 222 221 220 220 220
211 215 218 212 206 214 223 220 217 215 217 223 228 231 233 234 235 234 234 232 231 235 236 229 224 229 234 237 238 240 246 252 258 264 268 271 275 276 277 278 279 283 286 287 290 293 296 300 303 306 308 311 314 316 316 317 318 319 321 322 324 324 322 319 315 308 301 293 285 278 271 265 260 256 253 254 252 244 236 230 225 222 221 221 221 222
216 214 219 217 212 219 227 223 219 219 217 221 232 236 235 236 241 242 240 237 233 232 233 229 227 231 236 237 237 242 249 254 259 267 271 274 276 276 276 274 276 284 285 284 287 290 291 296 301 305 307 309 311 314 314 315 315 316 319 321 323 324 323 321 318 314 309 302 293 284 275 266 260 256 253 252 250 243 235 231 227 224 222 222 222 220
222 216 221 222 216 219 225 222 218 217 217 223 234 241 242 241 242 243 245 245 239 229 226 230 232 233 233 233 238 246 251 255 260 266 269 271 271 270 271 271 275 282 285 286 289 290 291 295 300 303 305 306 308 311 313 313 313 314 317 319 320 321 322 322 320 317 313 309 302 293 282 270 262 257 253 249 247 242 236 232 228 225 224 223 221 219
225 217 220 223 218 216 222 225 225 225 227 233 239 241 240 237 235 237 243 247 242 232 230 234 235 232 232 234 239 247 251 254 259 263 264 265 264 265 266 270 277 281 283 286 289 291 292 295 299 302 303 303 304 307 310 311 312 314 315 317 318 319 321 321 321 319 316 312 308 301 292 279 267 260 255 250 245 241 236 231 227 226 226 225 221 220
224 216 218 223 218 213 220 227 228 229 232 236 240 240 236 233 231 232 238 241 239 234 233 234 232 230 232 235 237 241 245 249 254 256 257 256 256 259 264 273 280 281 281 284 287 291 294 295 299 303 304 304 305 305 308 310 311 312 313 315 317 318 320 321 320 319 316 314 312 307 300 291 278 266 258 251 246 241 235 230 227 227 228 225 220 219
219 217 220 224 217 212 218 224 226 231 234 234 235 234 230 229 226 226 234 239 235 229 227 228 229 228 229 230 230 232 234 238 245 250 254 254 254 259 267 275 279 279 279 283 287 291 294 296 299 304 306 307 307 307 309 311 312 313 313 315 317 318 320 321 321 321 318 316 314 312 306 298 290 277 264 255 248 241 234 229 227 227 227 224 219 218
217 218 220 220 217 215 222 228 228 229 230 227 230 233 232 233 234 232 236 243 241 233 227 226 227 225 222 224 227 229 230 235 245 252 256 258 258 260 266 272 274 274 276 280 284 287 290 292 296 302 304 305 308 311 313 314 315 315 316 317 318 320 322 323 324 325 323 320 317 315 312 304 296 287 272 259 249 241 233 227 226 226 226 222 218 217
218 219 219 219 220 220 222 227 226 226 227 226 229 234 235 238 242 240 236 238 243 240 230 226 228 227 227 230 232 234 240 247 254 259 260 260 260 261 265 270 273 274 276 279 281 283 285 288 292 298 302 305 309 312 313 316 317 318 319 320 321 322 324 325 326 326 326 324 320 318 318 313 304 293 279 262 251 242 234 227 225 225 224 221 218 216
223 222 219 219 225 223 218 221 227 232 235 231 228 233 237 240 243 241 236 236 243 243 231 225 229 230 230 234 235 238 247 253 256 258 260 259 258 260 265 271 272 273 274 277 279 281 284 287 290 296 301 305 309 311 312 314 317 319 322 323 323 324 324 325 326 325 325 325 322 319 321 322 317 306 290 269 252 243 236 228 224 223 222 221 218 215
229 230 224 221 224 221 218 224 231 235 238 234 230 235 240 242 240 239 239 238 240 243 235 225 225 228 228 230 234 240 248 251 251 255 257 256 256 258 261 266 268 270 272 275 277 279 282 286 290 295 300 303 307 310 311 312 315 318 321 322 322 323 324 324 323 322 323 324 324 322 322 326 327 321 307 281 256 246 238 229 223 221 221 220 217 214
235 236 230 225 223 220 220 227 232 235 238 235 233 237 242 242 238 237 242 241 237 241 238 227 224 228 229 230 237 247 251 249 247 252 255 255 257 260 262 267 270 272 275 277 278 278 279 284 289 293 297 300 303 305 307 309 312 315 316 317 320 322 321 320 320 321 322 324 325 324 324 325 329 330 324 301 264 247 239 232 225 219 218 218 216 212
234 235 231 226 223 222 223 227 233 236 236 234 235 240 242 240 235 235 240 240 233 235 238 230 227 231 234 236 241 248 250 245 242 247 251 254 258 262 266 271 273 275 278 280 281 281 282 284 288 290 293 295 297 299 302 304 307 309 310 311 315 317 317 317 319 320 322 325 326 327 328 328 328 333 338 328 281 240 231 229 226 219 215 215 213 211
234 235 234 229 225 226 227 229 234 237 237 235 236 238 237 234 235 235 236 235 230 231 234 232 228 230 233 235 234 233 236 237 237 240 245 250 255 260 266 270 272 275 278 281 283 284 285 286 289 292 292 292 292 293 295 299 303 304 305 308 311 311 311 314 316 319 322 325 326 328 331 332 329 328 337 346 337 252 219 217 217 215 214 213 212 209
232 229 230 227 226 228 228 230 233 235 236 236 233 233 234 234 233 230 228 230 230 229 228 225 222 223 224 222 221 222 228 234 236 237 242 247 253 261 267 272 275 278 281 284 286 288 289 289 292 294 293 290 290 290 292 296 300 300 301 305 306 306 307 310 313 316 320 323 323 324 327 330 329 325 325 338 353 340 214 206 206 207 208 209 210 210
233 230 228 227 228 229 227 227 230 233 235 233 228 227 229 227 224 221 221 224 226 224 220 214 214 217 214 208 211 218 224 230 236 240 245 249 253 259 265 270 276 281 283 286 289 291 292 292 291 291 290 289 290 292 294 296 298 299 299 300 302 303 305 307 308 311 316 319 320 320 319 319 323 325 321 318 324 325 234 207 207 205 202 202 205 208
230 224 222 223 225 226 224 224 226 226 224 221 215 214 215 215 217 218 213 209 210 209 205 199 199 202 199 196 202 212 219 227 234 240 246 248 251 256 263 269 276 281 285 288 289 291 292 292 290 289 289 289 290 292 295 296 297 298 299 298 298 299 301 303 305 306 309 313 315 316 314 312 314 318 318 313 306 302 277 222 213 210 208 206 206 207
222 216 216 217 214 214 215 216 215 211 207 205 205 207 209 210 212 210 200 196 198 194 188 187 186 185 185 187 193 201 210 220 228 237 244 248 252 260 267 274 279 283 287 289 289 289 289 290 291 291 291 291 291 291 292 294 294 295 296 296 297 296 297 299 303 303 303 305 308 311 311 308 308 309 309 307 301 296 293 266 232 221 219 220 219 216
223 216 214 213 211 213 212 206 202 197 195 196 198 200 201 200 197 192 184 183 183 176 171 173 173 171 172 177 183 191 202 214 225 238 247 253 262 269 275 281 285 288 290 290 290 289 288 287 288 291 293 294 293 292 293 294 294 293 293 294 295 293 292 294 299 301 301 300 300 303 305 304 302 302 302 300 296 289 284 277 262 244 234 229 227 225
211 203 203 205 204 200 190 181 177 176 180 183 182 181 183 179 174 172 170 169 168 165 164 166 166 165 166 168 175 186 201 218 230 243 254 263 270 277 282 287 290 292 294 294 294 295 293 289 289 291 294 294 293 292 292 293 294 296 296 294 294 292 291 290 293 296 299 298 296 295 297 298 297 296 294 292 291 287 281 272 264 255 246 239 234 230
189 190 193 190 180 170 164 161 159 159 163 168 168 165 165 162 159 159 160 160 159 160 162 162 160 160 162 166 174 182 198 223 240 250 261 269 276 281 285 289 291 294 297 300 300 301 301 299 298 298 299 298 295 292 291 290 291 294 296 296 296 295 293 290 290 292 294 294 293 291 290 292 293 292 290 288 285 281 278 274 269 261 254 248 242 236
163 172 177 175 171 169 166 164 161 157 155 159 160 157 155 155 154 155 155 155 155 158 161 160 159 161 166 172 178 182 199 225 243 253 263 273 280 284 288 292 296 300 303 305 306 306 305 304 304 305 305 304 301 297 294 291 290 292 294 295 295 294 292 288 287 289 291 290 289 288 285 285 286 285 284 284 282 278 273 273 273 270 264 259 254 249
143 157 165 167 164 160 159 159 156 148 146 150 152 151 151 151 149 148 150 149 149 151 153 153 155 159 165 172 176 180 193 218 242 263 279 288 292 295 298 301 303 307 310 311 310 309 307 305 304 305 305 305 304 301 298 294 292 292 293 294 293 292 291 287 284 284 286 285 285 284 283 282 282 281 278 275 274 273 270 269 272 274 273 270 265 262